Regional Weather Roundup
Issued by NWS

Home | Current Version | Previous Version | Text Only | Print | Product List | Glossary Off
Versions: 1 2 3 4 5 6 7 8 9 10 11 12 13 14 15 16 17 18 19 20 21 22 23 24 25 26 27 28 29 30 31 32 33 34 35 36 37 38 39 40 41 42 43 44 45 46 47 48 49 50

000
ASUS44 KMEG 280110
RWRTN
TENNESSEE HOURLY STATE WEATHER ROUNDUP
NATIONAL WEATHER SERVICE MEMPHIS TN
800 PM CDT THU APR 27 2017

TNZ002-004-019-021-049-052-054-088>092-280200-
WEST TENNESSEE

CITY           SKY/WX    TMP DP  RH WIND       PRES   REMARKS
MEMPHIS INTL   PTCLDY    65  49  56 SE8       29.81R
NWS MEMPHIS      N/A     64 N/A N/A MISG        N/A
JACKSON        PTCLDY    59  54  83 CALM      29.82R
DYERSBURG      CLEAR     61  52  72 E3        29.82S
SOMERVILLE     CLEAR     59  54  82 CALM      29.81R
UNION CITY     CLEAR     59  52  77 CALM      29.82S
BOLIVAR        CLEAR     59  55  88 CALM      29.82R
PARIS          CLEAR     54  50  87 CALM      29.84S
HUNTINGDON     CLEAR     57  54  88 CALM      29.82S
LEXINGTON      CLEAR     57  55  94 CALM      29.82S
SAVANNAH       CLEAR     57  57 100 CALM      29.82S
$$

TNZ008-025-027-028-033-062-065-066-280200-
NORTH MIDDLE TENNESSEE

CITY           SKY/WX    TMP DP  RH WIND       PRES   REMARKS
NASHVILLE      PTCLDY    63  50  62 W5        29.86R
PORTLAND       CLEAR     59  52  77 CALM      29.86R
CLARKSVILLE    MOCLDY    60  49  66 CALM      29.85R
SMYRNA         CLEAR     62  54  74 CALM      29.87R
COOKEVILLE     CLEAR     59  55  88 CALM      29.84R
GALLATIN       CLEAR     63  52  67 NW5       29.88R
CROSSVILLE     CLEAR     62  50  64 CALM      29.87S
$$

TNZ061-075-076-078-094-096-097-280200-
SOUTH MIDDLE TENNESSEE

CITY           SKY/WX    TMP DP  RH WIND       PRES   REMARKS
FAYETTEVILLE   CLEAR     64  54  68 CALM      29.86R
TULLAHOMA      CLEAR     61  54  77 CALM      29.87R
WINCHESTER     CLEAR     64  54  68 CALM      29.86R
MCMINNVILLE    CLEAR     63  55  77 CALM      29.85R
COLUMBIA       CLEAR     59  59 100 CALM      29.84R
SHELBYVILLE    CLEAR     64  55  72 NW3       29.87R
$$

TNZ017-018-042-046-047-280200-
NORTHEAST TENNESSEE

CITY           SKY/WX    TMP DP  RH WIND       PRES   REMARKS
TRI CITIES     FOG       63  62  97 CALM      29.87R VSB 3/4
ELIZABETHTON   DRIZZLE   63  63 100 NE3       29.87R
$$

TNZ012-013-036-069-073-074-280200-
CENTRAL EAST TENNESSEE

CITY           SKY/WX    TMP DP  RH WIND       PRES   REMARKS
KNOXVILLE      PTCLDY    69  57  65 SW6       29.82R
OAK RIDGE      CLEAR     69  59  70 CALM      29.83R
DOWNTOWN KNOXV CLEAR     68  59  73 CALM      29.83R
GATLINBURG     CLEAR     66  57  72 SW3       29.83R
MORRISTOWN     CLEAR     66  59  77 S3        29.84R
JACKSBORO      CLEAR     64  54  68 CALM      29.86R
$$

TNZ083-085-099-280200-
SOUTHEAST TENNESSEE

CITY           SKY/WX    TMP DP  RH WIND       PRES   REMARKS
CHATTANOOGA    PTCLDY    70  55  59 SW5       29.83R
$$

SKY/WX REPORTED AS FAIR MEANS FEW OR NO CLOUDS BELOW
12 THOUSAND FEET.





USA.gov is the U.S. government's official web portal to all federal, state and local government web resources and services.